Location: Unspecified
(0.0000°N, 0.0000°E)
Time: 15:03:03
(UTC+00:00)

THORAD DELTA 1 DEB - Pass Details

Date: 18 February 2026
Orbit: 1451 x 1739 km, 101.5° (Epoch: 4 March)

Event Time Altitude Azimuth Distance (km) Brightness Sun altitude
Rises 19:22:37 0° 141° (SE) 4,684 ? -16.8°
Reaches altitude 10° 19:26:01 10° 130° (SE) 3,664 ? -17.7°
Maximum altitude 19:32:59 29° 74° (ENE) 2,446 ? -19.4°
Drops below altitude 10° 19:39:45 10° 18° (NNE) 3,564 ? -21.0°
Sets 19:42:58 0° 8° (N) 4,536 ? -21.8°
